Location: Taupo
(38.6830°S, 176.0830°E)
Time: 23:24:55
(UTC+13:00)

Cosmos 1709 Rocket - Pass Details

Date: 24 January 2019
Orbit: 949 x 1001 km, 82.9° (Epoch: 20 February)

Event Time Altitude Azimuth Distance (km) Brightness Sun altitude
Exits shadow 23:15:13 53° 32° (NNE) 1,196 4.0 -24.3°
Maximum altitude 23:16:33 67° 87° (E) 1,066 4.0 -24.4°
Drops below altitude 10° 23:22:47 10° 167° (SSE) 2,742 6.9 -25.1°
Sets 23:25:18 0° 170° (S) 3,689 7.7 -25.4°
